Погода в Ошмянах

Беларусь     54°25′30″N   25°56′14″E
темп.,
°C
ветер,
м/с
пор.,
м/с
влажн.,
%
обл.,
%
осадки,
мм/ч
давл.,
гПа
погр.,
м
7 мая, пт
пт700:00+3ююз4108797 0.0 1007186
03:00+3ююз4118596 0.1 1006249
06:00+1ююз499234 0.0 1007175
09:00+6ююз4777100 0.0 1007399
12:00+9ююз5667100 0.2 10061424
15:00+5юз2491100 2.9 1006550
18:00+5с1295100 2.0 1005156
21:00+5ссз3497100 3.9 1005711
8 мая, сб
сб800:00+5всв249492 0.1 1005143
03:00+3з2395100 0.1 100656
06:00+1сз4109588 0.0 1007268
09:00+3сз698999 0.0 1010609
12:00+6сз6964100 0.1 10111641
15:00+8сз795679 0.1 10131790
18:00+7зсз69726 0.6 10141158
21:00+4з48915 1.0 1016201
9 мая, вс
вс900:00+2з36955 0.0 1018108
03:00+1з36940 0.0 1020109
06:000зюз349546 0.0 102174
09:00+6зюз457941 0.0 1023506
12:00+10юз56545 0.0 10231384
15:00+12юз57495 0.0 10221885
18:00+13ююз585964 0.0 10221715
21:00+10ю4117060 0.0 1022299
10 мая, пн
пн1000:00+8ю5137165 0.0 1023307
03:00+6ю513759 0.0 1024257
06:00+6ю513808 0.0 1025260
09:00+11ю612695 0.0 1025411
12:00+15ю7105732 0.0 10251017
15:00+17ю8105231 0.0 10241244
18:00+16ююв7116216 0.0 10231133
21:00+13ююв5147127 0.0 1023394
11 мая, вт
вт1100:00+10ююв5167745 0.0 1025390
03:00+9ююв617781 0.0 1024399
06:00+8ююв6168114 0.0 1024402
09:00+12ююв715702 0.0 1025608
12:00+16ююв811500 0.0 1024918
15:00+18юв810512 0.0 10231107
18:00+17юв711593 0.0 1022963
21:00+11юв410790 0.0 1021170